Location: Anderson Flat
(38.9218°N, 122.6205°W)
Time: 18:42:09
(UTC+00:00)

Daily predictions for brighter satellites

Satellite Brightness Start Highest point End
(mag) Time Altitude Azimuth Time Altitude Azimuth Time Altitude Azimuth
Okean 1 4.2 12:04:48 33° NW 12:04:48 33° NW 12:07:36 10° N
Cosmos 1544 3.3 12:02:42 10° N 12:06:20 68° E 12:09:57 10° SSE
SL-4 R/B 4.5 12:10:09 11° S 12:10:09 11° S 12:10:22 10° S
Meteor 2-9 Rocket 4.4 12:01:01 10° N 12:06:54 82° E 12:12:46 10° S
STARLINK-1059 3.6 12:08:54 55° W 12:09:38 68° NW 12:13:46 10° NE
IDEFIX/ARIANE 42P 2.8 12:05:09 10° N 12:10:09 50° WNW 12:11:44 37° WSW
Cosmos 389 Rocket 2.5 12:11:00 38° S 12:12:14 79° E 12:15:49 10° NNE
CZ-2C R/B 2.7 12:09:55 10° NNE 12:14:27 61° E 12:18:58 10° S
NOSS 3-2 (C) 3.3 12:11:29 29° SSW 12:14:35 89° ESE 12:20:57 10° NNE
STARLINK-1057 3.7 12:13:41 47° W 12:14:36 62° NW 12:18:43 10° NE
Cosmos 1975 2.7 12:11:20 10° NNW 12:15:19 65° W 12:17:36 24° S
SeaSat 1 3.1 12:11:02 10° SE 12:15:50 56° ENE 12:20:41 10° NNW
Cosmos 1048 Rocket 4.0 12:10:39 10° NNW 12:16:01 89° ENE 12:21:24 10° SSE
Gblst 52 Del rocket 4.2 12:11:28 11° WNW 12:17:22 62° SW 12:22:52 10° SE
NOSS 0 Rocket 4.4 12:13:06 10° NW 12:18:39 36° WSW 12:24:11 10° S
STARLINK-1034 3.8 12:18:26 41° W 12:19:34 56° NW 12:23:39 10° NE
Cosmos 1125 Rocket 3.5 12:17:55 27° SW 12:20:46 67° WNW 12:26:05 10° NNE
STARLINK-1068 4.0 12:23:14 35° W 12:24:34 51° NW 12:28:38 10° NE
ASTRO E2 4.2 12:25:24 21° SSW 12:25:27 21° SSW 12:28:30 10° SE
PSLV R/B 3.7 12:22:46 10° N 12:27:02 55° WNW 12:29:25 25° SW
Cosmos 2227 Rocket 2.7 12:25:19 28° WSW 12:27:39 40° WNW 12:32:57 10° N
Geosat 4.3 12:23:33 10° NNE 12:28:23 48° WNW 12:30:56 25° WSW
STARLINK-1027 4.2 12:27:31 30° W 12:29:08 46° NW 12:33:15 10° NE
Okean 3 3.4 12:28:18 21° SSW 12:30:57 61° W 12:35:05 10° N
STARLINK-1060 4.2 12:32:48 27° W 12:34:34 43° NW 12:38:32 10° NE
ADEOS 3.5 12:29:24 10° N 12:34:37 73° WNW 12:39:48 10° SSW
STARLINK-1030 4.4 12:37:35 24° W 12:39:33 40° NNW 12:43:29 10° NE
CZ-4B R/B 4.5 12:37:13 10° NNE 12:41:08 56° E 12:44:52 10° S
STARLINK-1043 4.4 12:37:58 15° SSW 12:41:11 46° SE 12:45:10 10° ENE
STARLINK-1065 4.4 12:39:20 15° SSW 12:42:35 48° SE 12:46:34 10° ENE
STARLINK-52 2.8 12:40:30 13° NW 12:43:20 84° SW 12:46:34 10° SE
STARLINK-1020 4.5 12:42:22 21° W 12:44:34 37° NNW 12:48:26 10° NE
Cosmos 1980 4.5 12:40:41 10° NW 12:45:22 27° WSW 12:50:03 10° SSW
Nadezhda 4 Rocket 4.0 12:40:54 10° SSW 12:47:08 64° W 12:53:26 10° N
CZ-4B R/B 2.6 12:47:38 22° WSW 12:48:03 23° W 12:50:51 10° NW
STARLINK-1063 4.1 12:47:32 13° SSW 12:51:05 57° SE 12:55:09 10° ENE
ALOS 3.6 12:47:57 10° NNE 12:52:24 42° E 12:56:50 10° S
STARLINK-1064 3.9 12:52:19 12° SW 12:56:03 64° SE 13:00:09 10° NE
ATLAS 3B R/B 2.7 12:49:55 10° SSW 12:56:37 82° ESE 13:03:16 10° NE
Okean 1 Rocket 4.0 12:53:30 10° N 12:57:46 52° E 13:02:02 10° SSE
Meteor 1-31 Rocket 2.7 12:54:05 10° N 12:58:02 85° WNW 13:01:57 10° SSW
STARLINK-1041 3.8 12:57:05 11° SW 13:01:00 71° SE 13:05:09 10° NE
SL-16 R/B 2.2 12:55:45 10° NNW 13:01:21 63° WSW 13:06:55 10° S
Cosmos 2082 4.4 12:57:04 13° WSW 13:01:37 36° WNW 13:06:54 10° N
FALCON 9 DEB 3.4 13:00:25 10° WNW 13:03:45 47° SW 13:07:02 10° SSE
CZ-4B R/B 3.1 13:00:47 10° NNE 13:05:04 85° E 13:09:31 10° SSW
STARLINK-1038 3.7 13:01:52 10° SW 13:05:59 78° SE 13:10:08 10° NE
FENGYUN 3A 4.2 13:02:14 10° NNE 13:07:37 63° E 13:12:55 10° S
BREEZE-M DEB (TANK) 3.3 13:06:56 10° W 13:09:21 20° NNW 13:11:05 10° NNE
Cosmos 1818 4.0 13:04:28 10° NNW 13:09:55 68° ENE 13:15:18 10° SE
COSMO-SKYMED 1 3.6 13:05:57 10° SSE 13:10:09 52° ENE 13:14:23 10° N
STARLINK-1046 3.6 13:06:49 10° SW 13:10:57 86° SE 13:15:06 10° NE
STARLINK-1039 3.6 13:11:48 10° SW 13:15:56 86° NW 13:20:06 10° NE
Cosmos 1356 4.0 13:12:53 10° NNW 13:16:00 33° W 13:19:08 10° SSW
Cosmos 1689 Rocket 3.8 13:15:31 10° SW 13:17:23 15° W 13:19:18 10° NW
USA 234 3.7 13:12:16 10° SSE 13:18:17 39° SW 13:24:20 10° WNW
Cosmos 1867 3.9 13:13:37 10° SSW 13:19:01 73° ESE 13:24:28 10° NE
STARLINK-1045 3.6 13:16:46 10° SW 13:20:54 78° NW 13:25:03 10° NE
Cosmos 1674 Rocket 4.0 13:17:02 10° SSW 13:21:12 40° WNW 13:25:22 10° N
Meteor 1-4 Rocket 3.6 13:19:14 10° SW 13:22:30 28° WNW 13:25:48 10° NNW
STARLINK-1050 3.7 13:21:49 10° WSW 13:25:57 70° NW 13:30:04 10° NE
